This is the latest recevied weather packets stored in our database for station/object WC4PEM-10. If no packets are shown the sender has not sent any weather packets the latest 1 day(s).
| Time | Temp. | Humidity | Pressure | Rain* | Wind** | Luminosity | Snow |
|---|---|---|---|---|---|---|---|
| 1778030701 | 23.33° C | 69% | 1015.2 hPa | 0 mm | 2.68 m/s, 97° | - | - |
| 1778030487 | 23.33° C | 69% | 1015.2 hPa | 0 mm | 2.68 m/s, 97° | - | - |
| 1778030445 | 23.33° C | 69% | 1015.1 hPa | 0 mm | 3.13 m/s, 106° | - | - |
| 1778030187 | 23.33° C | 69% | 1015.1 hPa | 0 mm | 3.13 m/s, 140° | - | - |
| 1778029887 | 23.33° C | 69% | 1015.1 hPa | 0 mm | 3.13 m/s, 106° | - | - |
| 1778029695 | 23.33° C | 68% | 1014.9 hPa | 0 mm | 2.68 m/s, 93° | - | - |
| 1778029587 | 23.33° C | 68% | 1014.9 hPa | 0 mm | 2.68 m/s, 93° | - | - |
| 1778029515 | 23.89° C | 68% | 1014.9 hPa | 0 mm | 2.68 m/s, 93° | - | - |
| 1778029287 | 23.89° C | 68% | 1014.9 hPa | 0 mm | 2.68 m/s, 93° | - | - |
| 1778029171 | 23.89° C | 68% | 1014.8 hPa | 0 mm | 3.58 m/s, 103° | - | - |
| 1778028987 | 23.89° C | 68% | 1014.8 hPa | 0 mm | 3.58 m/s, 103° | - | - |
| 1778028932 | 23.89° C | 68% | 1014.7 hPa | 0 mm | 3.58 m/s, 134° | - | - |
| 1778028694 | 23.89° C | 67% | 1014.6 hPa | 0 mm | 3.58 m/s, 93° | - | - |
| 1778028687 | 23.89° C | 68% | 1014.7 hPa | 0 mm | 3.58 m/s, 134° | - | - |
| 1778028387 | 23.89° C | 67% | 1014.6 hPa | 0 mm | 3.58 m/s, 93° | - | - |
| 1778028350 | 24.44° C | 67% | 1014.7 hPa | 0 mm | 3.58 m/s, 77° | - | - |
| 1778028087 | 24.44° C | 67% | 1014.7 hPa | 0 mm | 3.58 m/s, 77° | - | - |
| 1778028004 | 24.44° C | 67% | 1014.6 hPa | 0 mm | 3.58 m/s, 102° | - | - |
| 1778027787 | 24.44° C | 67% | 1014.6 hPa | 0 mm | 3.58 m/s, 102° | - | - |
| 1778027702 | 24.44° C | 66% | 1014.5 hPa | 0 mm | 3.58 m/s, 88° | - | - |
| 1778027487 | 24.44° C | 66% | 1014.5 hPa | 0 mm | 3.58 m/s, 88° | - | - |
| 1778027187 | 24.44° C | 66% | 1014.5 hPa | 0 mm | 4.02 m/s, 99° | - | - |
| 1778027092 | 25° C | 65% | 1014.4 hPa | 0 mm | 4.47 m/s, 71° | - | - |
| 1778026894 | 25° C | 65% | 1014.4 hPa | 0 mm | 4.47 m/s, 118° | - | - |
| 1778026887 | 25° C | 65% | 1014.4 hPa | 0 mm | 4.47 m/s, 71° | - | - |
* Rain latest hour (hover to see other rain measurements)
** Current wind speed in m/s (hover to see current wind gust speed)